Wind_Speed
2 1 2 6 8 11 12 11 16 7 6 4 8 6 7 15 9 17 17 14 14 10 10 4 14 18 21 23 24 24 24 25 23 24 23 21 20 22 22 21 20 18 17 18
4 2 4 8 8 11 6 11 10 11 6 8 9 11 13 8 8 16 20 15 16 12 14 14 5 10 16 19 20 21 22 21 22 24 24 19 19 19 22 21 21 20 18 17
0 4 6 4 8 14 5 6 7 4 9 5 11 4 5 4 10 16 22 14 13 13 14 13 16 16 18 12 7 14 17 15 17 19 18 16 16 15 15 16 20 24 21 21
4 4 4 4 7 5 5 11 7 9 2 3 4 4 1 4 12 18 16 18 13 18 14 9 16 17 19 19 16 11 6 5 8 11 14 15 15 13 13 13 12 12 15 18
4 5 4 2 6 4 6 6 3 5 4 3 6 4 4 6 10 12 11 13 7 7 10 13 17 19 18 21 18 16 15 7 9 6 8 8 9 11 12 12 13 13 15 14
5 4 2 3 6 5 10 3 2 2 3 3 6 1 3 5 5 4 7 14 17 15 8 12 15 16 16 20 19 18 16 14 10 7 5 2 3 5 7 9 11 8 7 6
6 5 6 2 5 5 8 5 3 5 5 3 10 7 4 9 6 5 7 6 7 11 11 10 12 14 13 18 18 17 16 15 14 11 9 7 8 10 10 10 10 10 9 9
4 5 6 7 1 3 5 3 3 1 2 2 7 6 5 4 6 3 2 2 4 8 7 6 3 8 19 19 15 11 11 11 12 14 14 9 6 8 8 10 9 7 6 7
3 4 5 3 3 2 7 4 2 5 2 3 3 1 1 2 3 4 6 5 4 3 3 5 7 13 12 8 10 8 7 8 5 3 3 0 4 4 3 5 4 3 3 3
1 5 2 5 2 2 2 2 3 3 3 3 2 3 2 4 5 6 9 7 7 7 8 8 11 15 15 13 10 8 5 6 5 6 5 5 5 4 3 3 4 5 5 4
2 1 5 2 5 2 5 3 4 3 2 2 3 0 2 2 3 6 6 5 5 6 7 8 13 16 18 16 14 13 11 10 9 7 5 5 6 6 5 4 4 5 5 5
1 1 3 2 3 2 1 1 1 3 2 2 2 3 2 4 5 6 5 4 4 4 5 6 11 15 18 20 22 22 18 15 12 9 7 7 7 4 3 5 6 6 5 5
2 2 3 6 5 3 4 3 1 1 2 1 4 3 2 4 6 5 6 5 5 5 6 6 13 15 19 21 22 22 20 18 13 9 7 5 3 2 2 4 5 6 6 7
2 1 4 4 2 2 3 4 3 2 2 3 3 4 3 4 6 5 5 5 5 5 6 5 7 10 14 18 20 20 19 18 15 11 7 5 4 2 1 1 2 3 4 5
2 2 0 0 2 3 3 3 3 1 1 2 2 7 5 6 7 5 4 4 5 6 7 6 5 9 15 19 21 21 20 19 17 13 9 4 2 2 2 3 3 3 4 5
1 2 1 3 2 3 4 7 4 3 2 4 2 1 4 3 5 5 6 5 6 5 6 6 7 13 16 18 19 21 21 21 18 16 14 10 5 3 3 4 4 5 6 6
2 4 3 4 4 3 5 7 6 3 1 5 5 4 5 4 6 5 5 5 4 3 4 6 7 10 13 14 15 18 19 19 18 17 16 13 9 5 4 5 6 6 6 5
4 4 3 3 4 2 5 1 1 3 1 3 3 5 3 4 2 5 3 4 1 2 4 5 6 9 11 13 13 15 16 17 17 18 17 15 12 8 4 5 6 6 6 7
1 4 3 3 3 6 4 3 5 5 4 6 5 3 3 4 3 1 5 3 2 3 5 7 8 10 10 11 12 14 15 16 17 18 17 16 13 10 6 4 6 7 7 7
5 5 3 3 4 5 4 2 3 2 1 6 6 6 6 4 3 4 3 1 4 6 8 10 11 12 12 12 13 14 13 13 14 15 15 14 12 9 6 4 5 6 7 8
3 3 5 2 2 8 6 4 2 5 5 5 7 7 7 5 4 3 2 5 6 9 11 8 8 11 11 12 14 15 14 13 13 13 12 11 10 8 6 2 3 5 7 9
6 6 3 3 2 7 6 2 6 4 2 6 6 7 6 4 4 2 4 5 7 9 10 10 12 14 15 14 14 15 16 13 12 12 11 10 9 7 5 2 2 5 8 10
3 6 5 8 5 3 5 1 2 4 5 5 6 5 6 5 4 2 4 5 8 11 13 12 12 16 17 18 15 17 18 12 12 12 10 9 6 6 4 2 3 6 8 9
4 4 3 3 4 7 5 4 3 5 5 4 3 5 5 5 4 4 5 6 9 12 12 11 12 14 18 16 14 16 16 16 16 15 12 11 9 7 6 5 6 8 10 10
3 8 6 4 5 4 6 8 6 7 3 3 3 5 4 3 5 5 5 8 12 15 17 16 16 17 21 19 18 17 17 16 19 18 16 15 14 13 11 11 11 13 13 12
5 7 6 6 8 6 6 9 9 7 6 7 6 4 5 7 7 6 8 12 15 18 21 21 22 23 27 25 24 23 21 20 20 23 23 22 20 18 17 15 15 16 17 17
Wind_Direction
305 359 309 321 317 296 268 279 269 226 245 249 219 169 63 19 290 41 48 8 22 35 352 157 192 202 202 205 208 206 200 209 210 214 216 224 229 235 237 243 245 245 251 254
14 321 313 307 309 333 281 282 308 258 210 204 152 132 87 34 335 50 55 24 20 359 11 19 89 185 203 204 208 211 214 214 213 216 216 218 229 241 245 250 250 250 248 255
235 280 323 343 343 349 317 308 334 299 89 73 121 52 122 192 28 49 50 44 30 6 11 7 32 51 77 81 187 209 212 217 221 224 223 226 236 246 255 257 251 248 254 246
248 299 337 348 351 343 330 344 343 12 99 70 353 134 249 74 53 36 31 36 22 16 2 18 16 28 52 61 82 119 141 206 217 220 226 232 239 242 258 266 269 267 260 256
291 317 337 349 284 319 262 333 344 45 51 108 14 89 333 16 33 31 20 57 41 51 11 12 24 346 45 55 57 68 69 69 122 185 223 240 246 254 265 270 273 279 275 253
271 275 247 262 286 248 285 288 251 7 71 73 341 282 33 31 29 11 42 23 32 20 9 19 12 351 31 49 43 40 53 39 42 59 90 169 286 311 312 301 292 278 263 255
327 314 310 322 338 321 14 21 349 4 47 19 339 53 31 18 39 29 49 36 26 45 32 39 4 2 18 49 36 26 38 32 32 32 19 355 340 330 331 309 294 272 248 249
351 333 353 335 69 293 320 40 104 109 45 15 2 25 14 317 328 328 131 90 47 19 44 40 117 40 29 14 40 32 28 38 15 17 8 359 30 339 331 332 303 283 277 260
357 272 308 256 311 52 319 38 284 112 350 70 7 144 45 234 3 46 59 42 27 30 34 51 32 41 57 41 30 21 37 31 60 53 73 182 32 11 322 284 259 201 173 170
322 298 275 296 343 5 44 298 12 10 67 69 51 60 73 22 34 47 53 40 27 35 40 32 36 36 48 42 46 56 77 109 89 78 77 73 90 120 140 121 104 105 106 110
331 135 293 360 15 350 346 8 33 113 64 135 117 330 220 146 113 97 69 62 43 43 35 29 34 46 54 58 55 56 48 45 52 59 70 66 75 83 86 82 83 87 96 98
48 1 260 251 278 237 242 354 33 103 280 47 89 221 128 164 127 113 97 91 73 56 53 54 45 44 42 41 45 45 44 41 38 34 33 39 53 61 90 104 111 107 108 112
23 333 353 347 353 8 44 336 328 74 53 222 124 230 113 122 92 78 96 66 53 52 46 40 40 36 36 37 39 39 33 30 25 23 27 38 50 70 105 122 130 137 143 139
79 133 178 192 222 313 323 338 359 44 86 181 199 150 146 131 110 101 81 69 57 46 41 36 39 34 36 35 33 31 31 30 27 19 5 359 354 355 38 98 128 147 146 145
109 163 193 164 13 320 286 282 329 65 51 118 206 157 196 167 153 156 140 100 68 41 33 23 18 13 22 23 24 23 23 22 22 24 22 358 323 280 229 198 191 179 164 164
31 162 90 336 349 360 292 283 267 244 163 115 67 133 173 118 103 127 134 108 66 36 20 6 5 11 10 11 10 11 13 14 15 19 18 11 347 291 255 235 210 196 185 176
83 129 77 271 340 343 330 230 194 192 214 142 171 201 173 139 149 158 138 102 81 39 3 354 346 349 355 359 359 2 2 5 12 12 10 8 4 334 275 239 221 213 201 189
130 93 65 232 9 4 253 296 109 163 227 210 117 145 127 139 138 137 161 142 132 324 324 324 334 339 348 349 351 353 359 3 6 9 9 5 360 352 317 262 237 223 210 198
89 123 69 122 187 289 300 194 181 175 209 193 189 141 129 123 92 53 200 204 240 266 286 296 322 327 328 340 345 346 351 355 358 1 2 2 360 352 330 274 240 226 218 207
82 61 113 78 135 217 250 213 209 166 320 174 167 167 155 148 122 248 228 240 292 315 318 320 323 320 320 333 335 335 337 342 348 349 351 353 352 351 345 297 233 215 209 202
91 26 148 164 220 288 234 212 180 100 220 154 156 156 153 172 194 181 163 294 298 309 317 321 320 318 319 319 323 321 322 326 332 335 341 345 349 349 349 332 229 208 194 186
161 146 175 97 88 270 170 98 184 197 134 142 145 154 168 189 181 240 276 278 309 313 321 321 316 318 319 319 313 310 308 317 320 325 331 337 344 346 341 334 228 198 184 180
207 183 177 187 209 256 208 256 241 158 147 177 146 165 169 176 214 213 259 276 294 308 314 319 315 316 319 322 315 306 310 302 303 310 311 312 322 334 326 305 230 205 195 191
238 158 184 110 233 219 218 224 230 205 181 153 129 165 169 198 202 268 289 290 294 301 308 312 310 307 305 317 314 305 301 285 282 288 288 286 281 283 282 259 240 225 219 216
175 142 173 264 273 296 236 220 208 218 193 172 184 184 194 196 255 243 274 288 292 298 302 301 295 289 293 307 307 308 304 288 272 271 270 267 265 259 256 252 245 238 233 231
188 174 170 215 198 182 206 201 192 188 195 202 179 191 228 213 239 258 273 290 296 300 307 307 307 307 309 312 308 305 301 289 275 266 265 262 258 256 254 249 246 242 239 241
Height
811 813 825 808 802 799 792 789 785 776 772 772 772 776 779 791 796 775 775 778 773 770 775 769 771 776 778 781 785 788 792 795 799 804 808 811 813 815 816 819 821 823 824 826
817 813 804 804 797 792 794 792 779 768 770 773 771 779 791 797 793 782 771 787 782 781 776 773 771 775 778 779 783 786 790 792 796 800 803 807 809 811 813 815 817 819 820 821
814 807 803 800 794 791 792 788 787 770 765 769 772 787 786 797 790 778 776 786 792 790 783 782 779 777 778 781 783 787 789 791 794 798 801 804 807 808 810 811 812 813 815 816
815 807 804 800 792 795 790 780 782 770 761 766 788 784 802 794 790 787 786 789 795 789 794 791 788 784 781 782 783 785 788 791 793 796 799 802 803 804 807 809 810 810 812 812
811 810 806 802 798 794 788 783 780 774 775 773 786 782 798 798 798 800 802 803 812 804 797 792 792 797 788 787 788 787 787 792 791 795 797 799 800 802 804 805 806 808 808 809
815 810 806 799 793 792 786 780 777 777 779 784 789 784 794 801 808 813 806 803 794 802 806 799 801 799 794 793 794 791 792 792 792 793 794 796 799 800 802 803 804 806 806 806
821 808 806 801 798 789 790 791 818 803 788 787 798 789 812 811 810 812 808 808 808 806 802 806 810 805 801 797 794 797 794 795 795 798 797 796 797 800 801 803 804 804 804 803
832 826 810 803 800 803 800 798 812 824 801 794 803 811 818 819 814 811 812 811 809 807 809 810 814 811 799 800 798 799 799 796 796 793 796 800 796 800 801 800 804 804 803 806
828 823 810 804 802 803 798 803 803 815 835 817 822 818 813 814 813 812 810 811 812 813 812 814 811 807 804 807 804 806 803 800 799 801 804 803 799 798 803 803 805 805 804 803
826 831 812 807 802 801 800 801 806 820 842 831 821 821 820 819 820 818 818 820 818 816 813 812 810 808 807 806 805 807 810 808 804 802 803 802 801 804 807 805 803 802 803 804
828 826 819 813 818 818 817 810 812 815 818 820 824 826 818 818 821 823 824 824 825 821 818 816 812 813 812 813 810 807 807 808 805 805 805 803 801 801 803 803 803 802 803 805
830 833 843 819 817 819 816 816 817 823 820 825 820 829 817 819 821 823 826 826 824 824 822 820 819 818 817 815 809 807 806 806 805 805 805 803 800 803 804 802 801 801 802 803
830 852 863 838 828 820 823 818 815 819 821 825 831 832 822 823 825 826 827 826 825 824 821 819 817 818 818 817 814 810 808 806 806 806 806 805 807 806 805 803 803 803 804 804
830 840 840 844 835 838 831 821 819 819 838 823 822 822 820 824 827 828 828 827 826 826 825 823 821 821 821 818 815 813 812 810 808 806 805 805 805 804 803 803 805 806 804 804
834 851 849 837 838 838 832 825 821 816 817 832 819 824 824 825 828 830 830 828 828 827 825 824 823 822 819 818 816 815 813 811 810 809 808 808 807 807 806 806 806 806 806 806
839 857 852 855 843 845 845 829 825 822 817 821 822 821 823 825 829 831 831 830 829 828 827 826 824 821 820 819 817 815 814 812 811 809 808 806 804 803 803 804 805 806 806 806
844 857 870 864 862 864 859 835 824 817 819 818 821 818 823 825 828 830 830 828 828 828 827 826 825 823 822 821 819 817 815 814 811 809 807 805 804 803 803 802 803 804 804 804
850 869 902 881 888 873 825 825 822 816 819 819 816 820 821 824 826 828 827 826 826 826 826 826 825 823 822 821 820 818 816 813 811 808 806 804 803 802 800 801 801 802 802 804
839 850 903 880 929 857 816 825 826 819 814 821 820 820 823 828 828 828 827 826 826 826 825 824 823 823 823 822 819 817 815 813 810 808 806 804 802 801 800 800 800 801 802 803
841 846 863 918 891 880 822 815 816 814 829 815 819 823 826 827 835 834 823 823 823 823 822 821 821 821 820 819 818 816 814 812 809 807 805 803 802 801 799 799 798 799 799 801
854 882 887 898 904 860 821 815 815 836 818 812 816 821 826 826 825 822 822 823 823 822 822 821 821 821 820 819 817 815 813 811 809 807 805 804 802 799 797 797 797 798 799 800
838 865 889 909 896 853 816 819 817 809 809 811 815 816 819 819 819 820 821 822 821 820 819 818 817 816 816 816 814 811 810 809 807 805 804 802 800 799 798 797 796 797 798 799
831 825 837 837 832 812 813 808 807 807 808 809 810 811 813 817 818 818 819 818 817 817 816 815 814 813 812 812 811 808 807 806 805 804 803 801 800 798 798 797 797 798 798 799
822 820 827 823 806 813 809 808 806 806 805 806 807 810 812 814 815 816 817 817 817 816 815 814 813 811 810 810 808 805 803 802 801 800 799 798 798 798 798 797 797 796 797 798
810 813 820 822 807 808 806 804 802 804 805 806 807 809 811 813 814 815 815 815 814 813 811 811 811 809 807 806 803 801 799 798 796 795 794 794 794 794 794 794 794 795 795 796
802 802 805 802 792 793 791 793 796 802 802 804 808 810 810 811 811 812 812 812 812 810 809 808 807 805 801 799 797 796 796 793 791 790 789 788 788 787 788 788 789 791 792 793